Dewpoint
71 71 73 73 73 75 74 74 75 74 73 73 74 75 74 75 76 76 76 74 73 73 74 74 73 74 73 73 73 72 71 71 67 71 72 73 73 73 73 73 70 70 67
71 72 72 73 74 74 73 73 75 74 75 74 75 74 75 75 75 76 75 72 71 72 72 73 72 69 74 74 73 73 73 73 71 68 70 73 73 75 74 73 73 69 66
71 70 72 73 73 73 72 74 75 75 76 75 75 76 76 74 75 76 76 73 71 72 71 73 73 73 73 74 73 73 72 71 73 72 71 73 73 73 73 73 71 68 64
72 70 71 73 73 72 73 74 75 75 75 75 76 76 76 75 75 74 75 75 74 73 73 72 72 73 73 74 73 73 72 73 72 70 70 70 70 71 71 70 69 66 62
74 75 73 73 74 75 75 75 76 76 74 75 76 75 75 74 70 75 74 74 74 74 74 73 71 70 68 69 73 74 73 71 71 70 69 68 68 68 68 69 68 67 66
73 72 75 74 74 75 75 75 75 75 75 75 75 75 74 71 66 68 73 74 75 75 74 74 73 68 66 65 65 64 65 71 72 71 71 68 68 68 69 69 68 67 65
72 73 72 71 72 72 75 75 75 75 74 73 74 74 75 71 65 67 67 73 74 75 74 75 74 72 72 70 64 64 64 64 65 70 70 68 68 66 68 68 68 68 67
72 73 72 71 71 71 72 72 74 75 74 74 74 74 74 65 63 65 66 70 74 73 72 70 73 72 69 71 71 66 62 60 61 63 62 61 62 64 66 71 69 67 64
71 71 71 72 71 71 70 70 72 73 71 73 71 71 71 66 61 62 66 73 73 71 69 64 68 69 63 63 69 65 60 58 59 59 58 59 60 61 64 69 66 64 63
70 70 70 70 69 69 69 70 71 71 68 68 65 66 63 65 57 59 63 71 70 69 68 65 59 61 59 61 67 64 59 59 59 58 57 56 58 59 61 64 65 63 61
68 68 69 69 68 69 68 68 68 65 64 62 60 59 59 58 59 57 60 68 68 64 64 61 58 56 55 56 60 61 59 58 57 56 57 57 57 58 60 62 64 63 60
63 64 66 67 66 67 64 63 62 61 59 59 58 57 57 57 55 55 57 60 61 60 58 57 54 53 53 55 57 56 56 57 56 55 55 55 56 56 57 59 62 62 62
63 62 62 61 61 61 61 60 59 60 59 59 59 57 57 57 57 54 55 56 57 57 56 54 53 52 53 55 55 56 56 56 55 54 54 53 55 58 59 58 59 60 60
62 62 61 61 60 61 61 60 60 60 59 59 59 58 58 58 57 57 57 56 56 56 56 57 56 56 55 55 56 57 56 56 53 52 54 55 55 55 56 58 57 55 55
62 60 59 58 56 54 51 53 56 52 55 61 60 59 58 57 56 54 56 58 58 56 55 56 55 54 53 53 52 52 53 53 52 53 55 56 54 54 53 56 56 55 52
62 62 60 59 59 58 56 54 48 46 46 46 50 55 52 52 48 45 45 48 50 51 58 57 55 54 53 53 53 54 55 57 57 58 57 56 54 53 54 55 55 55 54
63 61 61 59 60 59 55 54 52 51 47 44 44 44 46 47 45 44 44 46 48 51 55 60 58 57 57 57 54 55 55 56 58 56 55 54 53 51 52 52 53 52 50
62 58 61 62 61 60 59 55 54 53 53 54 49 49 44 44 44 45 46 48 52 50 57 57 55 55 55 55 53 53 54 56 55 54 53 51 52 53 52 51 51 50 50
59 59 61 60 60 58 59 57 54 55 54 55 54 51 48 45 45 45 45 56 57 53 53 53 51 50 51 53 55 55 55 54 54 55 55 54 53 52 52 49 44 43 45
61 58 58 59 58 59 58 56 56 56 55 54 53 54 55 53 55 57 57 59 58 53 55 53 53 54 55 54 55 56 53 54 54 55 54 53 53 52 49 47 44 43 46
56 55 57 53 53 52 52 52 52 52 52 52 53 53 50 55 53 55 53 56 55 54 58 53 55 55 55 55 54 53 52 52 53 51 50 51 52 50 50 48 46 45 46
53 50 47 46 46 50 49 50 50 49 50 50 52 52 50 53 54 54 53 54 53 56 56 59 53 52 51 52 53 52 51 51 51 50 50 50 50 50 48 46 46 46 46
50 48 46 46 48 50 49 46 46 47 47 48 46 48 50 50 50 50 52 52 52 54 53 55 56 53 53 53 53 53 53 50 52 52 51 50 49 49 48 47 46 46 47
47 45 44 47 49 46 46 47 47 45 44 46 46 45 46 47 48 51 50 52 53 53 53 53 53 51 53 53 53 51 52 53 53 52 52 51 50 45 47 47 46 46 46
48 45 45 46 48 47 47 47 47 48 48 48 47 47 47 48 49 51 50 52 52 54 54 54 52 52 51 55 53 53 43 38 51 46 52 52 51 51 47 45 46 46 46
47 43 43 43 46 48 48 46 47 48 47 47 49 50 51 51 52 54 56 52 55 54 55 54 55 54 49 50 53 42 34 37 44 38 51 52 50 50 48 46 45 45 45
Lifted_Index
-5 -5 -6 -6 -5 -5 -5 -5 -5 -5 -4 -4 -4 -5 -5 -5 -5 -4 -4 -4 -3 -4 -4 -4 -4 -4 -4 -4 -4 -4 -4 -3 -3 -3 -4 -4 -4 -4 -4 -3 -2 -2 -1
-5 -5 -6 -6 -6 -5 -5 -5 -5 -5 -5 -5 -5 -5 -5 -5 -5 -5 -5 -4 -4 -4 -4 -4 -4 -4 -4 -4 -4 -4 -4 -3 -3 -3 -4 -4 -4 -4 -4 -3 -2 -2 -1
-5 -5 -6 -6 -6 -6 -5 -5 -5 -5 -5 -5 -5 -5 -5 -5 -5 -5 -5 -5 -4 -4 -4 -4 -4 -4 -4 -4 -4 -4 -4 -3 -3 -3 -3 -4 -4 -4 -4 -3 -2 -1 -1
-6 -6 -6 -6 -6 -6 -5 -5 -5 -5 -5 -6 -5 -5 -5 -5 -5 -5 -5 -5 -5 -5 -4 -4 -4 -3 -3 -3 -3 -3 -3 -3 -3 -3 -3 -3 -3 -3 -3 -2 -2 -1 -1
-6 -6 -6 -6 -6 -6 -6 -5 -5 -5 -5 -5 -5 -5 -5 -5 -4 -4 -4 -4 -4 -5 -4 -4 -4 -3 -3 -3 -3 -3 -3 -3 -3 -3 -2 -2 -1 -1 -2 -2 -1 -1 -1
-6 -6 -6 -6 -6 -6 -6 -6 -5 -5 -5 -5 -5 -5 -5 -4 -4 -3 -4 -4 -4 -4 -4 -4 -4 -3 -3 -2 -2 -2 -2 -2 -2 -2 -2 -2 -1 -1 -1 -1 -1 -1 -1
-6 -6 -5 -5 -5 -6 -6 -6 -5 -5 -5 -5 -5 -5 -5 -4 -3 -3 -3 -3 -3 -4 -4 -4 -4 -3 -3 -2 -2 -2 -1 -1 -1 -2 -2 -1 -1 -1 -1 -1 -1 -1 -1
-5 -5 -5 -5 -5 -5 -5 -5 -5 -5 -5 -4 -5 -5 -4 -4 -3 -2 -2 -3 -3 -3 -3 -3 -3 -3 -3 -2 -2 -1 -1 -0 -0 -0 -0 -1 -0 -0 -0 -1 -1 -1 -1
-5 -4 -4 -4 -4 -4 -4 -4 -4 -4 -4 -4 -4 -4 -4 -3 -2 -2 -2 -3 -3 -2 -2 -1 -2 -2 -2 -2 -1 -1 -0 0 1 1 0 0 0 1 1 0 -0 -0 -0
-3 -3 -3 -3 -3 -3 -3 -3 -3 -3 -3 -2 -2 -2 -3 -2 -2 -1 -2 -2 -2 -2 -1 -0 -0 -1 -1 -1 -1 -0 0 1 1 1 1 1 1 2 2 2 1 1 1
-2 -2 -2 -2 -2 -2 -2 -2 -2 -2 -1 -1 -1 -1 -1 -1 -1 -1 -1 -1 -1 -1 -0 0 0 0 0 0 0 0 1 1 1 1 1 2 2 2 2 2 2 1 1
-1 -1 -1 -1 -1 -1 -0 -0 -0 -0 -0 0 0 -0 -0 -0 -0 -0 -0 -0 -0 0 1 1 1 1 1 1 1 1 1 2 2 2 2 2 3 3 4 4 4 3 3
1 0 -0 -0 0 0 1 1 0 0 1 1 1 1 1 1 1 1 1 1 1 1 1 1 2 2 2 2 2 2 2 2 2 2 2 3 5 6 7 6 6 5 5
2 2 1 1 2 2 2 2 1 1 1 2 2 2 2 2 2 2 2 2 2 2 2 2 2 2 2 2 2 2 2 2 3 3 4 5 7 8 8 7 7 7 7
2 3 3 3 3 3 3 3 2 2 3 3 3 3 3 3 3 3 3 3 3 3 3 3 3 2 2 2 2 2 3 3 3 4 5 6 7 8 8 7 7 7 7
2 2 3 3 3 3 3 3 3 3 4 4 4 4 4 4 4 3 3 3 4 4 4 4 3 3 3 3 3 3 4 4 4 5 5 6 7 7 7 7 7 6 6
1 1 2 2 2 1 1 2 2 3 4 5 5 5 6 6 5 5 5 5 5 5 4 4 4 4 4 4 4 4 5 5 5 6 6 7 7 7 7 7 7 7 7
0 1 1 1 1 1 1 2 2 3 4 5 6 7 8 8 7 6 6 6 5 5 5 5 5 6 6 5 5 6 6 6 6 6 6 7 7 7 7 7 7 7 7
0 0 1 1 1 2 2 3 3 4 5 6 7 8 8 8 7 7 6 5 5 5 6 6 7 7 8 7 7 7 7 6 6 6 6 6 6 6 6 7 7 7 8
0 1 1 1 2 2 2 3 3 4 5 6 6 7 7 7 6 5 5 4 4 4 5 6 7 8 8 7 7 7 7 7 6 6 6 6 6 6 6 7 8 8 8
0 1 2 2 3 3 3 3 3 3 4 4 5 5 5 5 4 4 4 4 4 4 4 5 6 7 7 6 6 6 6 6 6 6 6 6 6 7 7 7 8 8 8
1 2 3 4 4 4 4 4 3 3 3 4 4 5 4 4 4 4 4 4 4 4 4 4 5 6 6 6 6 6 6 6 6 6 6 7 7 7 7 8 8 7 7
2 3 4 4 4 5 4 4 4 4 4 4 4 5 4 4 4 3 4 4 4 4 4 5 5 5 5 6 6 6 6 6 6 6 6 6 7 7 7 7 7 6 6
3 3 4 3 4 4 4 4 3 4 3 3 4 4 4 4 4 3 3 3 4 4 4 5 5 5 5 5 5 5 5 6 6 6 6 6 6 6 6 6 5 5 5
3 3 3 3 3 3 3 3 3 3 3 3 3 3 4 4 4 3 3 3 3 4 4 4 4 4 4 4 4 5 5 6 6 6 6 6 6 5 5 5 4 4 3
3 3 4 3 3 3 3 3 3 3 3 3 3 3 3 3 3 3 3 3 3 3 4 4 4 4 4 4 4 5 5 6 6 6 6 6 5 5 5 4 4 3 2